TKY87T DTTJ-HEGN

Flight info

Callsign TKY87T
Flight time 2h 44m
Altitude 35000
Route MITBA DCT TANLI A411 LOSUL M855 MMA P751 DASUM Y234 FYM M872 BOPOB
Aircraft B738/M-SDE2E3FGHIRWXY/LB1

Departure

Time 2026-04-26 16:59
Airport Djerba Zarzis International Airport (DTTJ)

Arrival

Time 2026-04-26 19:43
Airport Hurghada International Airport (HEGN)
Time Latitude Longitude Altitude Speed Heading
2026-04-26 16:27 33.87318 10.77530 30 ft 0 kts 178°
2026-04-26 16:51 33.87332 10.77530 31 ft 4 kts 178°
2026-04-26 16:51 33.87355 10.77529 30 ft 4 kts 192°
2026-04-26 16:52 33.87375 10.77544 30 ft 4 kts 242°
2026-04-26 16:52 33.87381 10.77564 31 ft 4 kts 260°
2026-04-26 16:52 33.87384 10.77589 30 ft 0 kts 268°
2026-04-26 16:54 33.87383 10.77585 26 ft 3 kts 268°
2026-04-26 16:54 33.87382 10.77522 27 ft 10 kts 268°
2026-04-26 16:55 33.87380 10.77433 26 ft 11 kts 268°
2026-04-26 16:55 33.87378 10.77345 26 ft 10 kts 268°
2026-04-26 16:55 33.87368 10.77260 26 ft 10 kts 262°
2026-04-26 16:55 33.87365 10.77173 26 ft 11 kts 268°
2026-04-26 16:56 33.87358 10.76923 25 ft 19 kts 268°
2026-04-26 16:56 33.87354 10.76758 21 ft 19 kts 268°
2026-04-26 16:56 33.87350 10.76598 19 ft 19 kts 268°
2026-04-26 16:57 33.87346 10.76443 22 ft 18 kts 268°
2026-04-26 16:57 33.87342 10.76293 18 ft 18 kts 268°
2026-04-26 16:57 33.87402 10.76051 17 ft 16 kts 357°
2026-04-26 16:58 33.87501 10.76086 21 ft 16 kts 67°
2026-04-26 16:58 33.87507 10.76202 21 ft 33 kts 89°
2026-04-26 16:58 33.87555 10.78097 24 ft 149 kts 89°
2026-04-26 16:59 33.87583 10.79438 254 ft 165 kts 86°
2026-04-26 16:59 33.87227 10.82116 1265 ft 173 kts 135°
2026-04-26 17:00 33.84911 10.82711 2371 ft 174 kts 152°
2026-04-26 17:00 33.83336 10.84894 3260 ft 184 kts 121°
2026-04-26 17:00 33.82644 10.86300 3465 ft 206 kts 121°
2026-04-26 17:01 33.81882 10.87845 3599 ft 224 kts 121°
2026-04-26 17:01 33.81054 10.89504 3769 ft 241 kts 121°
2026-04-26 17:01 33.80151 10.91296 3948 ft 261 kts 121°
2026-04-26 17:01 33.79188 10.93186 4431 ft 269 kts 122°
2026-04-26 17:02 33.78201 10.95112 5034 ft 271 kts 122°
2026-04-26 17:02 33.77199 10.97054 5621 ft 275 kts 122°
2026-04-26 17:02 33.76181 10.99020 6180 ft 280 kts 122°
2026-04-26 17:02 33.75135 11.01022 6729 ft 284 kts 123°
2026-04-26 17:03 33.74076 11.03046 7275 ft 290 kts 123°
2026-04-26 17:03 33.72994 11.05114 7880 ft 292 kts 123°
2026-04-26 17:03 33.71913 11.07178 8547 ft 294 kts 124°
2026-04-26 17:03 33.70812 11.09283 9144 ft 298 kts 124°
2026-04-26 17:04 33.69706 11.11395 9827 ft 300 kts 124°
2026-04-26 17:04 33.68583 11.13538 10367 ft 307 kts 124°
2026-04-26 17:04 33.67405 11.15784 10518 ft 329 kts 124°
2026-04-26 17:04 33.66148 11.18177 10701 ft 348 kts 124°
2026-04-26 17:05 33.64842 11.20666 11131 ft 357 kts 123°
2026-04-26 17:05 33.63512 11.23203 11701 ft 361 kts 123°
2026-04-26 17:05 33.62170 11.25761 12343 ft 363 kts 123°
2026-04-26 17:05 33.60817 11.28339 12961 ft 367 kts 123°
2026-04-26 17:06 33.59464 11.30911 13562 ft 372 kts 123°
2026-04-26 17:06 33.58054 11.33592 14091 ft 379 kts 123°
2026-04-26 17:06 33.56637 11.36284 14651 ft 383 kts 123°
2026-04-26 17:06 33.55229 11.38956 15279 ft 385 kts 123°
2026-04-26 17:07 33.53792 11.41682 15914 ft 388 kts 123°
2026-04-26 17:07 33.52344 11.44427 16523 ft 392 kts 123°
2026-04-26 17:07 33.50878 11.47200 17112 ft 396 kts 123°
2026-04-26 17:07 33.49426 11.50015 17696 ft 400 kts 119°
2026-04-26 17:08 33.48254 11.53049 18279 ft 404 kts 112°
2026-04-26 17:08 33.47222 11.56200 18797 ft 407 kts 111°
2026-04-26 17:08 33.46207 11.59386 19293 ft 411 kts 111°
2026-04-26 17:08 33.45181 11.62599 19767 ft 416 kts 111°
2026-04-26 17:09 33.44130 11.65848 20248 ft 420 kts 111°
2026-04-26 17:09 33.43773 11.66944 20408 ft 421 kts 112°
2026-04-26 17:09 33.41972 11.72414 21164 ft 429 kts 112°
2026-04-26 17:09 33.40867 11.75745 21623 ft 433 kts 112°
2026-04-26 17:10 33.39751 11.79099 22088 ft 436 kts 112°
2026-04-26 17:10 33.38623 11.82481 22525 ft 440 kts 112°
2026-04-26 17:10 33.37484 11.85892 23024 ft 442 kts 112°
2026-04-26 17:10 33.36340 11.89317 23504 ft 445 kts 113°
2026-04-26 17:11 33.35187 11.92766 23876 ft 449 kts 113°
2026-04-26 17:11 33.34023 11.96244 24234 ft 452 kts 113°
2026-04-26 17:11 33.32851 11.99743 24609 ft 455 kts 113°
2026-04-26 17:11 33.31670 12.03266 24968 ft 458 kts 113°
2026-04-26 17:12 33.29278 12.10389 25596 ft 466 kts 112°
2026-04-26 17:12 33.28541 12.12806 25819 ft 469 kts 108°
2026-04-26 17:13 33.27413 12.20505 26536 ft 473 kts 96°
2026-04-26 17:13 33.27044 12.24423 26855 ft 476 kts 96°
2026-04-26 17:13 33.26298 12.32349 27483 ft 483 kts 97°
2026-04-26 17:14 33.25902 12.36340 27787 ft 485 kts 97°
2026-04-26 17:14 33.25070 12.44390 28376 ft 492 kts 97°
2026-04-26 17:14 33.24640 12.48463 28632 ft 495 kts 97°
2026-04-26 17:15 33.23768 12.56662 29226 ft 500 kts 97°
2026-04-26 17:15 33.23328 12.60790 29510 ft 503 kts 97°
2026-04-26 17:15 33.22884 12.64943 29781 ft 505 kts 97°
2026-04-26 17:16 33.22437 12.69113 30048 ft 508 kts 98°
2026-04-26 17:16 33.21985 12.73312 30299 ft 510 kts 98°
2026-04-26 17:16 33.21532 12.77522 30553 ft 511 kts 97°
2026-04-26 17:16 33.21077 12.81727 30843 ft 511 kts 97°
2026-04-26 17:17 33.20621 12.85935 31185 ft 510 kts 97°
2026-04-26 17:17 33.20166 12.90119 31575 ft 507 kts 97°
2026-04-26 17:17 33.19710 12.94293 31971 ft 505 kts 97°
2026-04-26 17:17 33.19257 12.98430 32358 ft 502 kts 97°
2026-04-26 17:18 33.18804 13.02553 32707 ft 501 kts 97°
2026-04-26 17:18 33.18350 13.06672 33028 ft 500 kts 97°
2026-04-26 17:18 33.17896 13.10777 33360 ft 498 kts 97°
2026-04-26 17:18 33.17442 13.14871 33707 ft 496 kts 97°
2026-04-26 17:19 33.16535 13.23015 34290 ft 494 kts 97°
2026-04-26 17:19 33.16081 13.27075 34500 ft 495 kts 97°
2026-04-26 17:19 33.15625 13.31150 34678 ft 496 kts 97°
2026-04-26 17:20 33.15166 13.35226 34873 ft 496 kts 97°
2026-04-26 17:20 33.14860 13.37930 35015 ft 496 kts 98°
2026-04-26 17:20 33.13704 13.47515 35118 ft 502 kts 98°
2026-04-26 17:21 33.12693 13.55663 35102 ft 498 kts 98°
2026-04-26 17:21 33.11685 13.63796 35127 ft 495 kts 98°
2026-04-26 17:22 33.10678 13.71929 35128 ft 497 kts 98°
2026-04-26 17:22 33.09659 13.80131 35132 ft 503 kts 98°
2026-04-26 17:23 33.08612 13.88506 35126 ft 511 kts 98°
2026-04-26 17:23 33.07554 13.96921 35127 ft 515 kts 98°
2026-04-26 17:24 33.06495 14.05289 35106 ft 512 kts 98°
2026-04-26 17:24 33.05434 14.13632 35120 ft 508 kts 98°
2026-04-26 17:25 33.04369 14.21967 35136 ft 510 kts 98°
2026-04-26 17:25 33.03288 14.30373 35132 ft 516 kts 98°
2026-04-26 17:26 33.02196 14.38823 35104 ft 515 kts 98°
2026-04-26 17:26 33.01103 14.47236 35124 ft 513 kts 98°
2026-04-26 17:27 33.00006 14.55631 35128 ft 513 kts 98°
2026-04-26 17:27 32.98902 14.64035 35126 ft 514 kts 98°
2026-04-26 17:28 32.97789 14.72460 35131 ft 515 kts 98°
2026-04-26 17:28 32.96675 14.80857 35125 ft 514 kts 98°
2026-04-26 17:29 32.95745 14.87837 35125 ft 513 kts 98°
2026-04-26 17:29 32.94438 14.97656 35127 ft 514 kts 98°
2026-04-26 17:30 32.93350 15.06084 35139 ft 516 kts 98°
2026-04-26 17:30 32.92260 15.14554 35128 ft 518 kts 98°
2026-04-26 17:31 32.91167 15.22962 35141 ft 518 kts 98°
2026-04-26 17:31 32.90048 15.31492 35137 ft 518 kts 98°
2026-04-26 17:32 32.88938 15.39909 35137 ft 518 kts 98°
2026-04-26 17:32 32.87807 15.48440 35142 ft 519 kts 98°
2026-04-26 17:33 32.86685 15.56855 35144 ft 518 kts 98°
2026-04-26 17:34 32.84984 15.69530 35147 ft 516 kts 98°
2026-04-26 17:34 32.83848 15.77947 35149 ft 515 kts 98°
2026-04-26 17:35 32.82706 15.86356 35155 ft 515 kts 98°
2026-04-26 17:35 32.81559 15.94759 35155 ft 515 kts 98°
2026-04-26 17:36 32.80406 16.03172 35159 ft 516 kts 98°
2026-04-26 17:36 32.79246 16.11584 35155 ft 517 kts 98°
2026-04-26 17:37 32.78076 16.20025 35154 ft 518 kts 98°
2026-04-26 17:37 32.76899 16.28476 35160 ft 519 kts 98°
2026-04-26 17:38 32.75120 16.41171 35162 ft 520 kts 98°
2026-04-26 17:38 32.73925 16.49639 35163 ft 519 kts 98°
2026-04-26 17:39 32.72727 16.58091 35164 ft 519 kts 98°
2026-04-26 17:39 32.71523 16.66548 35164 ft 520 kts 98°
2026-04-26 17:40 32.70517 16.73578 35168 ft 520 kts 98°
2026-04-26 17:40 32.69093 16.83477 35167 ft 521 kts 98°
2026-04-26 17:41 32.67868 16.91955 35166 ft 521 kts 98°
2026-04-26 17:41 32.66701 17.00388 35161 ft 520 kts 94°
2026-04-26 17:42 32.66561 17.08921 35176 ft 517 kts 86°
2026-04-26 17:42 32.66700 17.17460 35173 ft 518 kts 86°
2026-04-26 17:43 32.66786 17.26003 35171 ft 518 kts 86°
2026-04-26 17:43 32.66810 17.34557 35172 ft 518 kts 87°
2026-04-26 17:44 32.66814 17.43109 35180 ft 518 kts 86°
2026-04-26 17:44 32.66814 17.51661 35172 ft 518 kts 86°
2026-04-26 17:45 32.66813 17.60212 35169 ft 518 kts 86°
2026-04-26 17:45 32.66806 17.68750 35170 ft 517 kts 87°
2026-04-26 17:46 32.66794 17.77186 35190 ft 517 kts 86°
2026-04-26 17:46 32.66776 17.85735 35179 ft 518 kts 86°
2026-04-26 17:47 32.66760 17.91455 35177 ft 518 kts 86°
2026-04-26 17:47 32.66723 18.02822 35173 ft 517 kts 86°
2026-04-26 17:48 32.66117 18.11327 35164 ft 522 kts 102°
2026-04-26 17:48 32.64110 18.19626 35172 ft 525 kts 105°
2026-04-26 17:49 32.62003 18.27922 35170 ft 525 kts 105°
2026-04-26 17:49 32.59948 18.36216 35171 ft 524 kts 104°
2026-04-26 17:50 32.57943 18.44453 35180 ft 523 kts 104°
2026-04-26 17:50 32.55929 18.52746 35178 ft 524 kts 104°
2026-04-26 17:51 32.53901 18.61055 35164 ft 526 kts 104°
2026-04-26 17:51 32.51855 18.69399 35175 ft 527 kts 104°
2026-04-26 17:52 32.49802 18.77739 35178 ft 528 kts 104°
2026-04-26 17:52 32.47743 18.86079 35178 ft 528 kts 104°
2026-04-26 17:53 32.45677 18.94420 35174 ft 528 kts 104°
2026-04-26 17:54 32.42573 19.06908 35173 ft 526 kts 105°
2026-04-26 17:54 32.40506 19.15188 35176 ft 524 kts 104°
2026-04-26 17:55 32.38441 19.23437 35176 ft 522 kts 105°
2026-04-26 17:55 32.36376 19.31664 35177 ft 521 kts 105°
2026-04-26 17:56 32.34308 19.39875 35175 ft 521 kts 105°
2026-04-26 17:57 32.30128 19.56404 35184 ft 530 kts 105°
2026-04-26 17:57 32.28004 19.64757 35174 ft 531 kts 105°
2026-04-26 17:58 32.23746 19.81432 35169 ft 527 kts 105°
2026-04-26 17:59 32.20568 19.93816 35171 ft 524 kts 105°
2026-04-26 17:59 32.18808 20.00650 35180 ft 524 kts 105°
2026-04-26 18:00 32.16685 20.08873 35178 ft 523 kts 105°
2026-04-26 18:00 32.14557 20.17093 35195 ft 524 kts 105°
2026-04-26 18:01 32.12505 20.25357 35167 ft 524 kts 99°
2026-04-26 18:01 32.11736 20.33853 35179 ft 521 kts 90°
2026-04-26 18:02 32.11384 20.40951 35172 ft 522 kts 90°
2026-04-26 18:02 32.10848 20.50946 35172 ft 523 kts 90°
2026-04-26 18:03 32.10330 20.59499 35171 ft 523 kts 91°
2026-04-26 18:03 32.09789 20.68048 35168 ft 523 kts 91°
2026-04-26 18:04 32.09247 20.76539 35166 ft 522 kts 91°
2026-04-26 18:05 32.08421 20.89396 35155 ft 521 kts 91°
2026-04-26 18:05 32.07870 20.97892 35153 ft 519 kts 91°
2026-04-26 18:06 32.07314 21.06364 35158 ft 518 kts 91°
2026-04-26 18:06 32.06757 21.14766 35158 ft 517 kts 91°
2026-04-26 18:07 32.06191 21.23211 35150 ft 516 kts 92°
2026-04-26 18:07 32.05621 21.31642 35147 ft 515 kts 92°
2026-04-26 18:08 32.05046 21.40059 35152 ft 515 kts 92°
2026-04-26 18:08 32.04466 21.48467 35143 ft 514 kts 92°
2026-04-26 18:09 32.03881 21.56867 35142 ft 514 kts 92°
2026-04-26 18:09 32.03290 21.65265 35146 ft 514 kts 92°
2026-04-26 18:10 32.02694 21.73665 35173 ft 514 kts 92°
2026-04-26 18:10 32.02094 21.82032 35141 ft 510 kts 92°
2026-04-26 18:11 32.01495 21.90300 35130 ft 503 kts 92°
2026-04-26 18:11 32.00897 21.98492 35136 ft 501 kts 92°
2026-04-26 18:12 32.00296 22.06665 35128 ft 500 kts 92°
2026-04-26 18:12 31.99691 22.14826 35139 ft 500 kts 93°
2026-04-26 18:13 31.99079 22.22995 35139 ft 503 kts 93°
2026-04-26 18:13 31.98459 22.31209 35130 ft 503 kts 93°
2026-04-26 18:14 31.97836 22.39404 35129 ft 502 kts 93°
2026-04-26 18:14 31.97211 22.47583 35125 ft 502 kts 93°
2026-04-26 18:15 31.96580 22.55793 35133 ft 504 kts 93°
2026-04-26 18:15 31.95942 22.64018 35126 ft 505 kts 93°
2026-04-26 18:16 31.95298 22.72248 35122 ft 505 kts 93°
2026-04-26 18:16 31.94321 22.84597 35127 ft 505 kts 93°
2026-04-26 18:17 31.93667 22.92783 35119 ft 505 kts 93°
2026-04-26 18:17 31.93005 23.00997 35115 ft 503 kts 93°
2026-04-26 18:18 31.92340 23.09184 35120 ft 501 kts 93°
2026-04-26 18:18 31.91672 23.17363 35131 ft 504 kts 93°
2026-04-26 18:19 31.90992 23.25613 35125 ft 508 kts 93°
2026-04-26 18:19 31.90302 23.33912 35124 ft 510 kts 93°
2026-04-26 18:20 31.89605 23.42210 35107 ft 507 kts 93°
2026-04-26 18:20 31.89023 23.49091 35118 ft 502 kts 93°
2026-04-26 18:21 31.88217 23.58568 35122 ft 500 kts 93°
2026-04-26 18:21 31.87521 23.66688 35120 ft 498 kts 93°
2026-04-26 18:22 31.86821 23.74792 35121 ft 498 kts 93°
2026-04-26 18:22 31.86115 23.82906 35127 ft 499 kts 93°
2026-04-26 18:23 31.85403 23.91033 35125 ft 501 kts 93°
2026-04-26 18:23 31.84463 23.99178 35123 ft 504 kts 96°
2026-04-26 18:24 31.83299 24.07324 35132 ft 506 kts 97°
2026-04-26 18:24 31.82128 24.15503 35128 ft 508 kts 96°
2026-04-26 18:25 31.80986 24.23695 35111 ft 508 kts 96°
2026-04-26 18:25 31.79853 24.31904 35112 ft 508 kts 96°
2026-04-26 18:26 31.78717 24.40095 35123 ft 508 kts 96°
2026-04-26 18:26 31.77575 24.48282 35112 ft 508 kts 96°
2026-04-26 18:27 31.76432 24.56425 35110 ft 508 kts 96°
2026-04-26 18:27 31.75276 24.64623 35104 ft 508 kts 96°
2026-04-26 18:28 31.74115 24.72814 35104 ft 508 kts 96°
2026-04-26 18:28 31.72948 24.81011 35098 ft 508 kts 97°
2026-04-26 18:29 31.71778 24.89195 35098 ft 508 kts 97°
2026-04-26 18:29 31.70602 24.97379 35098 ft 508 kts 97°
2026-04-26 18:30 31.69421 25.05562 35101 ft 509 kts 97°
2026-04-26 18:30 31.68230 25.13786 35105 ft 512 kts 96°
2026-04-26 18:31 31.67184 25.22049 35096 ft 512 kts 95°
2026-04-26 18:31 31.66234 25.30309 35077 ft 509 kts 95°
2026-04-26 18:32 31.65270 25.38512 35082 ft 507 kts 95°
2026-04-26 18:32 31.64280 25.46701 35086 ft 506 kts 95°
2026-04-26 18:33 31.63280 25.54875 35083 ft 506 kts 95°
2026-04-26 18:33 31.62285 25.62969 35059 ft 501 kts 95°
2026-04-26 18:34 31.61282 25.71092 35087 ft 500 kts 95°
2026-04-26 18:34 31.60290 25.79103 35080 ft 501 kts 95°
2026-04-26 18:35 31.59280 25.87214 35079 ft 503 kts 95°
2026-04-26 18:35 31.58264 25.95327 35063 ft 502 kts 96°
2026-04-26 18:36 31.57142 26.03445 35062 ft 507 kts 99°
2026-04-26 18:36 31.55501 26.11504 35062 ft 509 kts 102°
2026-04-26 18:37 31.53742 26.19519 35053 ft 507 kts 102°
2026-04-26 18:37 31.52035 26.27516 35062 ft 505 kts 102°
2026-04-26 18:38 31.50370 26.35503 35057 ft 504 kts 102°
2026-04-26 18:38 31.48710 26.43493 35051 ft 504 kts 102°
2026-04-26 18:39 31.47042 26.51479 35045 ft 505 kts 102°
2026-04-26 18:39 31.45363 26.59477 35046 ft 507 kts 102°
2026-04-26 18:40 31.43670 26.67511 35048 ft 509 kts 102°
2026-04-26 18:40 31.41967 26.75567 35036 ft 511 kts 102°
2026-04-26 18:41 31.40251 26.83654 35037 ft 513 kts 102°
2026-04-26 18:41 31.38525 26.91767 35025 ft 515 kts 103°
2026-04-26 18:42 31.36787 26.99907 35027 ft 515 kts 103°
2026-04-26 18:42 31.35046 27.08037 35029 ft 515 kts 103°
2026-04-26 18:43 31.33301 27.16163 35019 ft 515 kts 103°
2026-04-26 18:43 31.30926 27.24060 35022 ft 516 kts 118°
2026-04-26 18:44 31.27021 27.31055 35025 ft 514 kts 127°
2026-04-26 18:44 31.22921 27.37915 35021 ft 515 kts 126°
2026-04-26 18:45 31.18889 27.44825 35020 ft 515 kts 126°
2026-04-26 18:45 31.14870 27.51769 35020 ft 516 kts 126°
2026-04-26 18:46 31.10820 27.58683 35013 ft 516 kts 127°
2026-04-26 18:46 31.06712 27.65548 35014 ft 516 kts 127°
2026-04-26 18:47 31.03291 27.71247 35011 ft 515 kts 128°
2026-04-26 18:47 30.99191 27.78082 35009 ft 515 kts 128°
2026-04-26 18:48 30.95093 27.84917 35005 ft 515 kts 128°
2026-04-26 18:48 30.90989 27.91754 35014 ft 515 kts 128°
2026-04-26 18:49 30.86880 27.98587 35023 ft 516 kts 128°
2026-04-26 18:49 30.82759 28.05426 35016 ft 516 kts 128°
2026-04-26 18:50 30.78635 28.12260 35008 ft 516 kts 128°
2026-04-26 18:50 30.74506 28.19088 35008 ft 516 kts 128°
2026-04-26 18:51 30.70375 28.25909 35005 ft 516 kts 128°
2026-04-26 18:51 30.66237 28.32729 35002 ft 519 kts 129°
2026-04-26 18:52 30.62040 28.39631 34992 ft 527 kts 129°
2026-04-26 18:52 30.57781 28.46622 35016 ft 534 kts 129°
2026-04-26 18:53 30.53484 28.53672 35008 ft 536 kts 129°
2026-04-26 18:53 30.49176 28.60728 35007 ft 534 kts 129°
2026-04-26 18:54 30.44899 28.67721 35000 ft 530 kts 130°
2026-04-26 18:54 30.40640 28.74667 35013 ft 528 kts 130°
2026-04-26 18:55 30.36386 28.81592 35027 ft 528 kts 130°
2026-04-26 18:55 30.32126 28.88515 35021 ft 528 kts 130°
2026-04-26 18:56 30.27853 28.95448 35028 ft 532 kts 130°
2026-04-26 18:56 30.23540 29.02436 34991 ft 535 kts 130°
2026-04-26 18:57 30.19940 29.08263 35002 ft 536 kts 131°
2026-04-26 18:57 30.14859 29.16460 34992 ft 537 kts 131°
2026-04-26 18:58 30.10515 29.23491 34998 ft 538 kts 130°
2026-04-26 18:58 30.06253 29.30563 34983 ft 534 kts 130°
2026-04-26 18:59 30.02064 29.37546 34987 ft 531 kts 130°
2026-04-26 18:59 29.97845 29.44538 35001 ft 532 kts 130°
2026-04-26 19:00 29.93568 29.51551 34996 ft 535 kts 132°
2026-04-26 19:00 29.88959 29.58234 34988 ft 530 kts 136°
2026-04-26 19:01 29.84214 29.64706 34989 ft 528 kts 136°
2026-04-26 19:01 29.79502 29.71183 34991 ft 527 kts 136°
2026-04-26 19:02 29.74841 29.77681 34997 ft 526 kts 136°
2026-04-26 19:02 29.70980 29.83087 34988 ft 526 kts 136°
2026-04-26 19:03 29.65534 29.90697 35005 ft 530 kts 136°
2026-04-26 19:03 29.60815 29.97269 34997 ft 534 kts 136°
2026-04-26 19:04 29.56095 30.03840 34991 ft 533 kts 136°
2026-04-26 19:04 29.51375 30.10397 34990 ft 532 kts 136°
2026-04-26 19:05 29.44312 30.20189 34945 ft 529 kts 136°
2026-04-26 19:06 29.39610 30.26692 34985 ft 530 kts 137°
2026-04-26 19:06 29.34889 30.33208 34996 ft 531 kts 137°
2026-04-26 19:07 29.30162 30.39726 34992 ft 531 kts 137°
2026-04-26 19:07 29.25444 30.46224 34993 ft 530 kts 137°
2026-04-26 19:08 29.20732 30.52701 34998 ft 529 kts 137°
2026-04-26 19:08 29.16018 30.59169 34996 ft 529 kts 137°
2026-04-26 19:09 29.11291 30.65644 35003 ft 530 kts 137°
2026-04-26 19:09 29.06566 30.72108 34963 ft 530 kts 137°
2026-04-26 19:10 29.01845 30.78558 34993 ft 529 kts 137°
2026-04-26 19:10 28.97118 30.85003 35006 ft 529 kts 137°
2026-04-26 19:11 28.92382 30.91452 35017 ft 530 kts 137°
2026-04-26 19:11 28.87638 30.97901 35002 ft 531 kts 137°
2026-04-26 19:12 28.82888 31.04349 35026 ft 531 kts 137°
2026-04-26 19:12 28.78136 31.10791 35027 ft 531 kts 137°
2026-04-26 19:13 28.73386 31.17221 35028 ft 530 kts 137°
2026-04-26 19:13 28.68624 31.23632 34999 ft 529 kts 139°
2026-04-26 19:14 28.63737 31.29833 35036 ft 524 kts 141°
2026-04-26 19:14 28.58811 31.35944 35034 ft 524 kts 141°
2026-04-26 19:15 28.53897 31.42074 35038 ft 524 kts 140°
2026-04-26 19:15 28.49006 31.48213 35049 ft 524 kts 140°
2026-04-26 19:16 28.44115 31.54353 35039 ft 524 kts 140°
2026-04-26 19:16 28.39227 31.60479 35048 ft 523 kts 141°
2026-04-26 19:17 28.34342 31.66588 35021 ft 522 kts 141°
2026-04-26 19:17 28.31887 31.69650 34445 ft 526 kts 140°
2026-04-26 19:17 28.29440 31.72706 34055 ft 522 kts 141°
2026-04-26 19:17 28.27006 31.75746 33572 ft 519 kts 141°
2026-04-26 19:18 28.24578 31.78773 33118 ft 518 kts 141°
2026-04-26 19:18 28.22149 31.81797 32674 ft 519 kts 141°
2026-04-26 19:18 28.19714 31.84825 32234 ft 518 kts 140°
2026-04-26 19:18 28.17286 31.87843 31804 ft 519 kts 140°
2026-04-26 19:19 28.14852 31.90868 31372 ft 519 kts 140°
2026-04-26 19:19 28.12422 31.93886 30934 ft 518 kts 140°
2026-04-26 19:19 28.09995 31.96900 30506 ft 518 kts 140°
2026-04-26 19:19 28.07569 31.99910 30052 ft 517 kts 139°
2026-04-26 19:20 28.05141 32.02919 29545 ft 518 kts 139°
2026-04-26 19:20 28.03580 32.04987 29215 ft 524 kts 134°
2026-04-26 19:20 28.00935 32.09676 28600 ft 533 kts 124°
2026-04-26 19:20 27.99183 32.13374 28134 ft 534 kts 123°
2026-04-26 19:21 27.97454 32.17090 27661 ft 534 kts 123°
2026-04-26 19:21 27.95718 32.20816 27183 ft 534 kts 123°
2026-04-26 19:21 27.93973 32.24521 26716 ft 534 kts 123°
2026-04-26 19:21 27.92212 32.28216 26253 ft 534 kts 123°
2026-04-26 19:22 27.90438 32.31905 25727 ft 534 kts 123°
2026-04-26 19:22 27.88679 32.35540 25276 ft 534 kts 123°
2026-04-26 19:22 27.86872 32.39266 24825 ft 531 kts 123°
2026-04-26 19:22 27.85131 32.42856 24344 ft 526 kts 123°
2026-04-26 19:23 27.83379 32.46466 23870 ft 523 kts 123°
2026-04-26 19:23 27.81634 32.50059 23374 ft 521 kts 123°
2026-04-26 19:23 27.79898 32.53634 22832 ft 516 kts 123°
2026-04-26 19:23 27.78182 32.57165 22361 ft 510 kts 123°
2026-04-26 19:24 27.76486 32.60655 21908 ft 505 kts 123°
2026-04-26 19:24 27.74800 32.64118 21424 ft 501 kts 123°
2026-04-26 19:24 27.71473 32.70942 20541 ft 492 kts 123°
2026-04-26 19:25 27.69837 32.74292 20091 ft 489 kts 123°
2026-04-26 19:25 27.69284 32.75425 19939 ft 488 kts 123°
2026-04-26 19:25 27.66574 32.80967 19190 ft 483 kts 123°
2026-04-26 19:25 27.64958 32.84270 18729 ft 480 kts 123°
2026-04-26 19:26 27.63359 32.87539 18440 ft 470 kts 123°
2026-04-26 19:26 27.61788 32.90747 18195 ft 467 kts 123°
2026-04-26 19:26 27.60214 32.93955 17934 ft 467 kts 123°
2026-04-26 19:26 27.58646 32.97148 17670 ft 464 kts 123°
2026-04-26 19:27 27.57085 33.00324 17410 ft 462 kts 123°
2026-04-26 19:27 27.55535 33.03478 17161 ft 459 kts 123°
2026-04-26 19:27 27.53991 33.06618 16888 ft 457 kts 123°
2026-04-26 19:27 27.52451 33.09746 16628 ft 455 kts 123°
2026-04-26 19:28 27.50919 33.12856 16387 ft 454 kts 123°
2026-04-26 19:28 27.49389 33.15960 16090 ft 453 kts 123°
2026-04-26 19:28 27.47864 33.19052 15712 ft 450 kts 123°
2026-04-26 19:28 27.46351 33.22119 15300 ft 446 kts 123°
2026-04-26 19:29 27.44851 33.25156 14890 ft 443 kts 123°
2026-04-26 19:29 27.43358 33.28177 14467 ft 440 kts 123°
2026-04-26 19:29 27.41874 33.31178 14049 ft 438 kts 123°
2026-04-26 19:29 27.40396 33.34165 13603 ft 435 kts 123°
2026-04-26 19:30 27.38939 33.37110 13155 ft 427 kts 122°
2026-04-26 19:30 27.37818 33.40170 12736 ft 421 kts 104°
2026-04-26 19:30 27.37476 33.43381 12492 ft 405 kts 98°
2026-04-26 19:30 27.37380 33.44441 12374 ft 401 kts 98°
2026-04-26 19:31 27.36949 33.48465 11966 ft 382 kts 100°
2026-04-26 19:31 27.36599 33.51383 11691 ft 370 kts 100°
2026-04-26 19:31 27.36256 33.54192 11485 ft 356 kts 101°
2026-04-26 19:31 27.35816 33.56882 11216 ft 343 kts 113°
2026-04-26 19:32 27.34663 33.59114 10986 ft 321 kts 138°
2026-04-26 19:32 27.33017 33.60691 10774 ft 303 kts 153°
2026-04-26 19:32 27.31158 33.61659 10559 ft 289 kts 168°
2026-04-26 19:32 27.29238 33.62267 10351 ft 284 kts 172°
2026-04-26 19:33 27.27313 33.62803 10156 ft 287 kts 172°
2026-04-26 19:33 27.25364 33.63349 9957 ft 292 kts 171°
2026-04-26 19:33 27.23386 33.63919 9740 ft 295 kts 171°
2026-04-26 19:33 27.21396 33.64505 9501 ft 296 kts 170°
2026-04-26 19:34 27.19417 33.65092 9261 ft 293 kts 170°
2026-04-26 19:34 27.17462 33.65674 9039 ft 288 kts 170°
2026-04-26 19:34 27.15538 33.66246 8828 ft 285 kts 170°
2026-04-26 19:34 27.13628 33.66812 8622 ft 284 kts 170°
2026-04-26 19:35 27.11714 33.67378 8409 ft 284 kts 170°
2026-04-26 19:35 27.09793 33.67946 8086 ft 287 kts 169°
2026-04-26 19:35 27.07861 33.68518 7860 ft 287 kts 169°
2026-04-26 19:35 27.05934 33.69088 7606 ft 286 kts 169°
2026-04-26 19:36 27.04017 33.69657 7397 ft 284 kts 169°
2026-04-26 19:36 27.02757 33.70030 7235 ft 282 kts 169°
2026-04-26 19:36 27.00258 33.70771 6956 ft 273 kts 169°
2026-04-26 19:36 26.98433 33.71311 6762 ft 269 kts 169°
2026-04-26 19:37 26.96635 33.71842 6572 ft 265 kts 169°
2026-04-26 19:37 26.94887 33.72450 6367 ft 264 kts 156°
2026-04-26 19:37 26.93528 33.73822 6187 ft 267 kts 123°
2026-04-26 19:37 26.92918 33.75801 5873 ft 279 kts 95°
2026-04-26 19:38 26.93283 33.77920 5465 ft 279 kts 62°
2026-04-26 19:38 26.94312 33.79722 5073 ft 272 kts 53°
2026-04-26 19:38 26.95402 33.81434 4652 ft 267 kts 53°
2026-04-26 19:38 26.96493 33.83095 4225 ft 260 kts 46°
2026-04-26 19:39 26.97934 33.84193 3839 ft 247 kts 14°
2026-04-26 19:39 26.99573 33.84426 3529 ft 231 kts 354°
2026-04-26 19:39 27.01104 33.84108 3217 ft 218 kts 343°
2026-04-26 19:39 27.02534 33.83676 2865 ft 208 kts 342°
2026-04-26 19:40 27.03896 33.83259 2564 ft 198 kts 342°
2026-04-26 19:40 27.05193 33.82867 2269 ft 189 kts 343°
2026-04-26 19:40 27.06436 33.82492 2010 ft 180 kts 342°
2026-04-26 19:40 27.07604 33.82143 1774 ft 168 kts 342°
2026-04-26 19:41 27.08705 33.81814 1599 ft 157 kts 343°
2026-04-26 19:41 27.09755 33.81503 1615 ft 155 kts 344°
2026-04-26 19:41 27.10794 33.81226 1323 ft 150 kts 346°
2026-04-26 19:41 27.11451 33.81040 1077 ft 143 kts 345°
2026-04-26 19:42 27.12682 33.80639 707 ft 137 kts 344°
2026-04-26 19:42 27.13641 33.80392 634 ft 149 kts 342°
2026-04-26 19:42 27.14618 33.80073 398 ft 142 kts 342°
2026-04-26 19:42 27.15550 33.79792 229 ft 140 kts 344°
2026-04-26 19:43 27.16513 33.79509 111 ft 140 kts 339°
2026-04-26 19:43 27.17351 33.79256 99 ft 108 kts 345°
2026-04-26 19:43 27.17962 33.79076 98 ft 73 kts 345°
2026-04-26 19:43 27.18271 33.78997 101 ft 24 kts
2026-04-26 19:44 27.18427 33.79021 98 ft 18 kts 12°
2026-04-26 19:44 27.18489 33.79074 96 ft 11 kts 77°
2026-04-26 19:44 27.18444 33.79133 96 ft 11 kts 166°
2026-04-26 19:44 27.18370 33.79154 99 ft 11 kts 165°
2026-04-26 19:45 27.18298 33.79175 98 ft 10 kts 165°
2026-04-26 19:45 27.18231 33.79194 100 ft 10 kts 165°
2026-04-26 19:45 27.18167 33.79214 98 ft 9 kts 165°
2026-04-26 19:45 27.18106 33.79231 98 ft 8 kts 166°
2026-04-26 19:46 27.18054 33.79247 99 ft 7 kts 164°
2026-04-26 19:46 27.18006 33.79262 99 ft 7 kts 165°
2026-04-26 19:46 27.17959 33.79276 98 ft 7 kts 165°
2026-04-26 19:46 27.17913 33.79289 95 ft 7 kts 165°
2026-04-26 19:47 27.17868 33.79302 96 ft 7 kts 166°
2026-04-26 19:47 27.17838 33.79311 94 ft 7 kts 165°